Weather History for KFST - November, 2012

Change the Weather History Date:

Monday, November 26, 2012

  Actual Average Record
Temperature  
Mean Temperature 62 °F -  
Max Temperature 75 °F 62 °F 79 °F (2005)
Min Temperature 46 °F 39 °F 26 °F (2010)
Degree Days  
Heating Degree Days 4    
Growing Degree Days 12 (Base 50)    
Moisture  
Dew Point 32 °F    
Average Humidity 35    
Maximum Humidity 52    
Minimum Humidity 15    
Precipitation  
Precipitation 0.00 in - - ()
Sea Level Pressure  
Sea Level Pressure 29.97 in    
Wind  
Wind Speed 11 mph (NW)    
Max Wind Speed 16 mph    
Max Gust Speed -    
Visibility 10 miles    
Events      
Averages and records for this station are not official NWS values.
T = Trace of Precipitation, MM = Missing Value Source: NWS Daily Summary

Daily Weather History Graph

Daily Weather History Graph

Search for Another Location

Airport or City:

Trip Planner

Search our weather history database for the weather conditions in past years. The results will help you decide how hot, cold, wet, or windy it might be!

Date:

Astronomy

Nov. 26, 2012 Rise Set
Actual Time 7:28 AM CST 5:49 PM CST
Civil Twilight 7:02 AM CST 6:16 PM CST
Nautical Twilight 6:32 AM CST 6:45 PM CST
Astronomical Twilight 6:03 AM CST 7:14 PM CST
Moon 4:40 PM CST (11/26) 5:44 AM CST (11/26)
Length of Visible Light 11h 13m
Length of Day
10h 21m
Waxing Gibbous, 97% of the Moon is Illuminated
Nov 26
Waxing Gibbous
Nov 28
Full
Dec 6
Last Quarter
Dec 13
New
Dec 19
First Quarter

Hourly Weather History & Observations

Time (CST) Temp. Dew Point Humidity Pressure Visibility Wind Dir Wind Speed Gust Speed Precip Events Conditions
12:53 AM 55.9 °F 33.1 °F 42% 29.83 in 10.0 mi SW 13.8 mph - N/A   Clear
1:53 AM 55.9 °F 34.0 °F 44% 29.84 in 10.0 mi SW 13.8 mph - N/A   Clear
2:53 AM 57.9 °F 36.0 °F 44% 29.84 in 10.0 mi SW 16.1 mph - N/A   Clear
3:53 AM 57.0 °F 36.0 °F 45% 29.84 in 10.0 mi SW 11.5 mph - N/A   Clear
4:53 AM 57.0 °F 36.0 °F 45% 29.85 in 10.0 mi SW 15.0 mph - N/A   Clear
5:53 AM 57.9 °F 36.0 °F 44% 29.86 in 10.0 mi SW 13.8 mph - N/A   Clear
6:53 AM 57.0 °F 36.0 °F 45% 29.89 in 10.0 mi SW 15.0 mph - N/A   Clear
7:53 AM 59.0 °F 36.0 °F 42% 29.91 in 10.0 mi SW 12.7 mph - N/A   Clear
8:53 AM 66.0 °F 37.9 °F 36% 29.93 in 10.0 mi SW 11.5 mph - N/A   Clear
9:53 AM 64.9 °F 37.9 °F 37% 29.96 in 10.0 mi NNW 4.6 mph - N/A   Clear
10:53 AM 69.1 °F 36.0 °F 30% 29.97 in 10.0 mi NW 6.9 mph - N/A   Scattered Clouds
11:53 AM 66.9 °F 36.0 °F 32% 29.98 in 10.0 mi WSW 3.5 mph - N/A   Mostly Cloudy
12:53 PM 71.1 °F 35.1 °F 27% 29.95 in 10.0 mi Calm Calm - N/A   Overcast
1:53 PM 73.9 °F 32.0 °F 21% 29.94 in 10.0 mi Variable 4.6 mph - N/A   Clear
2:53 PM 75.9 °F 26.1 °F 16% 29.93 in 10.0 mi NNE 6.9 mph - N/A   Clear
3:53 PM 75.9 °F 25.0 °F 15% 29.93 in 10.0 mi NE 6.9 mph - N/A   Clear
4:53 PM 73.0 °F 26.1 °F 17% 29.95 in 10.0 mi ENE 4.6 mph - N/A   Clear
5:53 PM 66.9 °F 27.0 °F 22% 29.99 in 10.0 mi ENE 12.7 mph - N/A   Clear
6:53 PM 62.1 °F 21.9 °F 21% 30.05 in 10.0 mi ENE 11.5 mph - N/A   Clear
7:53 PM 57.9 °F 25.0 °F 28% 30.10 in 10.0 mi ENE 12.7 mph - N/A   Clear
8:53 PM 55.0 °F 30.0 °F 38% 30.13 in 10.0 mi ENE 12.7 mph - N/A   Clear
9:53 PM 53.1 °F 30.9 °F 43% 30.17 in 10.0 mi ENE 11.5 mph - N/A   Clear
10:53 PM 48.9 °F 30.9 °F 50% 30.21 in 10.0 mi NE 5.8 mph - N/A   Partly Cloudy
11:53 PM 46.9 °F 30.0 °F 52% 30.27 in 10.0 mi NNE 8.1 mph - N/A   Clear